Regional Weather Roundup
Issued by NWS Charleston, SC

Current Version | Previous Version | Graphics & Text | Print | Product List | Glossary On
Versions: 1 2 3 4 5 6 7 8 9 10 11 12 13 14 15 16 17 18 19 20 21 22 23 24 25 26 27 28 29 30 31 32 33 34 35 36 37 38 39 40 41 42 43 44 45 46 47 48 49 50
000
ASUS42 KCHS 261310
RWRCHS
REGIONAL WEATHER ROUNDUP
NATIONAL WEATHER SERVICE CHARLESTON SC
900 AM EDT SAT JUL 26 2014

NOTE: "FAIR" INDICATES FEW OR NO CLOUDS BELOW 12,000 FEET WITH NO
SIGNIFICANT WEATHER AND/OR OBSTRUCTIONS TO VISIBILITY.

NOT ALL STATIONS ARE QUALITY CONTROLLED BY THE NATIONAL
WEATHER SERVICE. USE DATA WITH CAUTION...ESPECIALLY
DEWPOINT OBSERVATIONS.

SCZ027-030-031-034>040-042>050-261400-
...SOUTH CAROLINA...

CITY           SKY/WX    TMP DP  RH WIND       PRES   REMARKS
N CHARLESTON   MOSUNNY   80  73  79 W5        30.03S
WATERFRONT PRK   N/A     79 N/A N/A W5          N/A
FORT JOHNSON   NOT AVBL
MOUNT PLEASANT FAIR      79  75  89 CALM      30.03S
JOHNS ISLAND   MOSUNNY   82  70  65 CALM      30.03S
PINOPOLIS        N/A     81  72  74 W3        29.96S
MONCKS CORNER    N/A     77  73  88 CALM      30.03S
SUMMERVILLE    FAIR      75  73  94 CALM      30.04S
BEAUFORT MCAS  SUNNY     81  75  82 NW7       30.04R
BEAUFORT ARPT  NOT AVBL
HILTON HEAD IS NOT AVBL
GEORGETOWN     NOT AVBL
WALTERBORO     MOSUNNY   77 N/A N/A W6        30.04S
ORANGEBURG     CLOUDY    75  72  90 CALM      30.05R
BARNWELL       CLOUDY    75  73  94 CALM      30.05R
AIKEN          FAIR      77  77 100 S3        30.08R
MANNING        PTSUNNY   77 N/A N/A W3        30.04R
KINGSTREE      NOT AVBL
COLUMBIA       PTSUNNY   76  71  85 S5        30.04R
SUMTER         SUNNY     77  74  90 NE2       30.02S
FLORENCE       PTSUNNY   74  72  93 CALM      30.03S FOG
MYRTLE BEACH   MOSUNNY   79  72  78 VRB5      30.02F
N MYRTLE BEACH MOSUNNY   79  72  79 W3        30.01F

$$

GAZ063-065-086>088-099>101-113>116-118-119-134-136>141-150-261400-
...GEORGIA...

CITY           SKY/WX    TMP DP  RH WIND       PRES   REMARKS
SAVANNAH ARPT  MOSUNNY   81  74  79 W7        30.05R
HUNTER AAF     SUNNY     81  76  84 SW7       30.03S
FORT STEWART   MOSUNNY   80  74  81 SW8       30.04S
STATESBORO     NOT AVBL
SYLVANIA       MOSUNNY   79  78  97 SW3       30.05S
CLAXTON        FAIR      81  79  94 SW5       30.05S
THOMSON        SUNNY     80  78  95 CALM      30.08S
AUGUSTA-BUSH   MOSUNNY   77  74  90 VRB3      30.03S
AUGUSTA-DANIEL SUNNY     79  73  82 SW5       30.05R
SWAINSBORO     FAIR      81  81 100 W5        30.06R HX  91
VIDALIA          N/A     79  75  89 W7        30.06R
ALMA           CLOUDY    78  74  87 SW8       30.06R
WAYCROSS       MOSUNNY   82  78  88 W8        30.06R HX  92
JESUP          NOT AVBL
BRUNSWICK      MOSUNNY   81  73  78 SW5       30.06S
SAINT SIMONS   MOSUNNY   80  75  84 SW9       30.06R

$$

SCZ027-028-034-036>038-045-046-048>050-GAZ119-141-261400-
...LAKE AND SUPPLEMENTAL COASTAL OBSERVATIONS...

STATION/POSITION TIME  TEMP    WIND        PRES    WAVE   SWELL
                       AIR SEA DIR/SP/G            HT/PER HT/PER/DIR
                 (UTC) (F)     (DEG/KT/KT) (MB)    (FT/S) (FT/S/D)
UPR LAKE MARION  NOT AVBL
WINYAH BAY       1200   75     270/  3     1016.0S
LAKE MURRAY      1200   74      90/  4/  6 1016.6S
ACE BASIN NERRS  1200   77     250/  1     1017.0S
FORT PULASKI     1300   80     250/  7/ 10 1017.6R
SAPELO ISLAND    1200   80     230/  9     1018.0S

$$

ANZ835-935-AMZ111-154-330-350-352-354-374-450-454-472-261400-
...C-MAN AND BUOY OBSERVATIONS...

STATION/POSITION TIME  TEMP    WIND        PRES    WAVE   SWELL
                       AIR SEA DIR/SP/G            HT/PER HT/PER/DIR
                 (UTC) (F)     (DEG/KT/KT) (MB)    (FT/S) (FT/S/D)
FOLLY BEACH CMAN 1200   79     270/  5/  6 1017.1R
BUOY 41004       1300   83 83  250/ 12/ 14 1015.7S   3/ 6   2/ 7
BUOY 41008       1300   81 84  260/ 14/ 16 1017.3R   3/ 5
5E ST. MARYS GA  1300      84                N/A     2/ 4
FRYING PAN BUOY  NOT AVBL
BUOY 41025       1300          VRB  4/  6  1016.8R   2/ 7   2/120/ 7
CAPE LOOKOUT NC  1300   81      70/  2/  3 1016.3S
BUOY 41002       1207   82 82  230/ 14/ 17 1018.9R   4/ 7   2/240/ 7
BUOY 41010       1300   84 84  200/ 10/ 12 1019.0R   2/ 8   2/140/ 8
BUOY 41012       NOT AVBL
ST AUGUSTINE FL  1300   82     240/  5/  6 1019.5R
CAPERS NEARSHORE 1200   82     270/ 12/ 14   N/A
FRIPP NEARSHORE  NOT AVBL


$$


USA.gov is the U.S. government's official web portal to all federal, state and local government web resources and services.